Home   Weather   Lehrte   Past weeks

Flag for Germany Past Weather in Lehrte, Lower Saxony, Germany — Yesterday and Last 2 Weeks

50 °F

Passing clouds.

Feels Like: 46 °F
Forecast: 44 / 53 °F
Wind: 9 mph from Southwest

Location: Hannover

Current Time: Oct 28, 2016 at 4:28:52 AM

Latest Report: Oct 28, 2016 at 3:50 AM

Visibility: 5 mi

Pressure: 30.36 "Hg

Humidity: 88%

Dew Point: 46 °F

Location of LehrteLocation

Past Weather in Lehrte — Graph


Lehrte Temperature Yesterday

Maximum temperature yesterday: 54 °F (at 12:20 PM)
Minimum temperature yesterday: 46 °F (at 12:20 AM)
Average temperature yesterday: 51 °F

High & Low Weather Summary for the Past Weeks

High63 °F (Oct 16, 1:20 PM)100% (Oct 16, 12:20 AM)30.45 "Hg (Oct 16, 12:20 AM)
Low32 °F (Oct 23, 7:50 AM)50% (Oct 23, 2:20 PM)29.74 "Hg (Oct 15, 5:20 AM)
Average47 °F89%30.06 "Hg
* Reported Oct 13 2:20 AM — Oct 28 2:50 AM, Lehrte, Weather by CustomWeather, © 2016

Note: Actual official high and low records may vary slightly from our data, if they occured in-between our weather recording intervals... More about our weather records


Lehrte Weather History for the Previous 24 Hours

Scroll right to see more
Time TempWeatherWind HumidityBarometerVisibility
2:50 AM
Fri, Oct 28
52 °FPassing clouds.12 mph88%30.39 "Hg6 mi
2:20 AM54 °FPassing clouds.13 mph82%30.39 "Hg6 mi
1:50 AM54 °FPassing clouds.13 mph82%30.42 "HgN/A
1:20 AM54 °FPassing clouds.9 mph82%30.42 "HgN/A
12:50 AM54 °FPassing clouds.8 mph82%30.42 "Hg6 mi
12:20 AM54 °FPassing clouds.8 mph82%30.42 "Hg6 mi
11:50 PM
Thu, Oct 27
52 °FPassing clouds.8 mph88%30.42 "Hg6 mi
11:20 PM52 °FPassing clouds.8 mph88%30.42 "Hg6 mi
10:50 PM52 °FPassing clouds.8 mph82%30.42 "Hg4 mi
10:20 PM52 °FPassing clouds.7 mph88%30.42 "Hg4 mi
9:50 PM52 °FFog.8 mph88%30.42 "Hg3 mi
9:20 PM50 °FFog.6 mph94%30.42 "Hg3 mi
8:50 PM50 °FFog.6 mph94%30.45 "Hg3 mi
8:20 PM48 °FFog.3 mph94%30.45 "Hg2 mi
7:50 PM50 °FFog.5 mph94%30.42 "Hg3 mi
7:20 PM50 °FFog.5 mph94%30.42 "Hg3 mi
6:50 PM52 °FPassing clouds.5 mph88%30.42 "Hg4 mi
6:20 PM54 °FPassing clouds.7 mph88%30.45 "Hg5 mi
5:50 PM54 °FPartly sunny.8 mph88%30.45 "Hg4 mi
5:20 PM54 °FPartly sunny.7 mph88%30.45 "Hg4 mi
4:50 PM54 °FBroken clouds.9 mph88%30.45 "Hg4 mi
4:20 PM54 °FBroken clouds.10 mph88%30.45 "Hg5 mi
3:50 PM54 °FBroken clouds.9 mph88%30.45 "Hg4 mi
3:20 PM54 °FPartly sunny.10 mph88%30.45 "Hg4 mi
2:50 PM54 °FFog.10 mph88%30.45 "Hg3 mi
2:20 PM54 °FFog.8 mph88%30.45 "Hg3 mi
1:50 PM54 °FFog.8 mph88%30.45 "Hg3 mi
1:20 PM54 °FFog.9 mph88%30.45 "Hg3 mi
12:50 PM54 °FFog.8 mph88%30.45 "Hg3 mi
12:20 PM54 °FFog.10 mph88%30.45 "Hg2 mi
11:50 AM52 °FFog.7 mph94%30.45 "Hg2 mi
11:20 AM52 °FFog.8 mph88%30.42 "Hg2 mi
10:50 AM52 °FFog.9 mph88%30.42 "Hg2 mi
10:20 AM52 °FFog.7 mph88%30.42 "Hg2 mi
9:50 AM52 °FFog.8 mph88%30.42 "Hg2 mi
9:20 AM50 °FFog.8 mph94%30.42 "Hg2 mi
8:50 AM50 °FFog.9 mph88%30.42 "Hg2 mi
8:20 AM50 °FFog.9 mph88%30.39 "Hg2 mi
7:50 AM50 °FFog.9 mph88%30.39 "Hg2 mi
7:20 AM50 °FFog.7 mph88%30.39 "Hg3 mi
6:50 AM50 °FFog.8 mph88%30.39 "Hg3 mi
6:20 AM50 °FFog.8 mph88%30.39 "Hg3 mi
5:50 AM50 °FFog.7 mph88%30.36 "Hg3 mi
5:20 AM50 °FFog.8 mph88%30.36 "Hg3 mi
4:50 AM50 °FFog.7 mph82%30.36 "Hg3 mi
4:20 AM50 °FFog.7 mph82%30.36 "Hg3 mi
Weather by CustomWeather, © 2016

See weather overviewHow to use our weather pages